Location: Brad
(46.1333°N, 22.7833°E)
Time: 06:13:58
(UTC+00:00)

Tiangong - Visible Passes

Search period start: 29 May 2023 00:00
Search period end: 08 June 2023 00:00
Orbit: 387 x 392 km, 41.5° (Epoch: 28 May)

Date Brightness Start Highest point End Pass type
(mag) Time Alt. Az. Time Alt. Az. Time Alt. Az.
02 Jun 0.3 01:34:57 10° S 01:36:15 12° SSE 01:37:33 10° SE visible
04 Jun -0.2 01:15:34 15° S 01:16:42 18° SSE 01:18:58 10° ESE visible
05 Jun 0.5 00:19:56 11° SE 00:19:56 11° SE 00:20:20 10° SE visible
05 Jun -1.0 01:52:18 10° SW 01:55:10 30° S 01:58:03 10° ESE visible
06 Jun -0.8 00:56:35 23° S 00:57:12 25° SSE 00:59:54 10° ESE visible
07 Jun 0.3 00:00:57 13° ESE 00:00:57 13° ESE 00:01:37 10° ESE visible
07 Jun -1.3 01:33:14 13° WSW 01:35:45 34° S 01:38:42 10° ESE visible
